map of BLL home
BLL - Airport
Location
City:  Billund, Denmark
ICAO:EKBI
IATA:BLL

Details
Type:Airport (Aerodrome, Airfield)
Latitude:5544'25"N (55.740322)
Longitude:909'06"E (9.151778)
Elevation:247 ft (75 m)
Variation:2.64E (WMM2015 magnetic declination)
0.15 annual change
Runways:1
Longest:10171 × 148 ft (3100 × 45 m), paved

Time
Time Zone:UTC+1 (DST+2)
Local Time:

Weather
METAR:EKBI 220850Z 24013KT 9999 SCT020CB FEW025TCU FEW036 13/08 Q1008
TAF:EKBI 220507Z 2206/2306 25012KT 9999 SCT020
TEMPO 2206/2208 SHRA SCT020CB
FM220800 25018KT 9999 SCT020
TEMPO 2208/2218 25020G35KT 4000 SHRA SCT020CB
FM221800 26010KT 9999 SCT020
TEMPO 2218/2224 SHRA SCT020CB

Related Locations
Nearby:
Farthest:CHT: 11569 mi / 18619 km
Waitangi [Tuuta], CIT, NZ

Find:

   beyond  
but within

Other Information
Maps:
NOTAMs:
Links:
Sources:

  
  • flag of Denmark
  

Sectional Chart

Flight Planning
at skyvector.com

Satellite Image

Google Maps Satellite view

 

Copyright © 2004-2018 Karl L. Swartz. All rights reserved.
The Great Circle Mapper name and logo are trademarks of the Great Circle Mapper.
All other trademarks mentioned herein belong to their respective owners.
Please see credits for attibutions and further copyright information.

  Follow gcmap on Facebook Follow gcmap on Twitter Follow gcmap on Google+ GCmap on LinkedIn

hCard Microformat

Geo Microformat